Regional Weather Roundup
Issued by NWS Newport/Morehead, NC

Current Version | Previous Version | Text Only | Print | Product List | Glossary On
Versions: 1 2 3 4 5 6 7 8 9 10 11 12 13 14 15 16 17 18 19 20 21 22 23 24 25 26 27 28 29 30 31 32 33 34 35 36 37 38 39 40 41 42 43 44 45 46 47 48 49 50
000
ASUS42 KMHX 282110
RWRMHX
WEATHER ROUNDUP FOR EASTERN NORTH CAROLINA
NATIONAL WEATHER SERVICE NEWPORT/MOREHEAD CITY NC
400 PM EST WED JAN 28 2015

NOTE: "FAIR" INDICATES FEW OR NO CLOUDS BELOW 12,000 FEET
WITH NO SIGNIFICANT WEATHER AND/OR OBSTRUCTIONS TO VISIBILITY

NCZ015>017-031-032-045>047-102-103-282200-
NORTH COAST

CITY           SKY/WX    TMP DP  RH WIND       PRES   REMARKS
EDENTON        SUNNY     42   9  26 N12       30.21R
ELIZABETH CITY SUNNY     41  11  29 N15       30.20R
KITTY HAWK     CLEAR     39   9  28 NW7       30.17R
MANTEO         SUNNY     39  16  38 NW7G16    30.19R

$$

NCZ045>047-081-094-103-104-282200-
CENTRAL COAST

CITY           SKY/WX    TMP DP  RH WIND       PRES   REMARKS
FRISCO         SUNNY     41  20  43 N7        30.18R
SWANQUARTER    NOT AVBL

$$

NCZ095-097-098-100-101-282200-
SOUTHERN COAST

CITY           SKY/WX    TMP DP  RH WIND       PRES   REMARKS
BEAUFORT       SUNNY     44  11  26 N12       30.19R
CEDAR ISLAND   NOT AVBL
JACKSONVILLE   SUNNY     44  12  27 N13       30.21R
PINEY ISLAND     N/A    N/A N/A N/A MISG      30.20R
WILMINGTON     SUNNY     46  14  27 N12       30.22R


$$

NCZ011>013-027>030-043-044-078>080-089-090>093-098-282200-
COASTAL PLAIN

CITY           SKY/WX    TMP DP  RH WIND       PRES   REMARKS
AHOSKIE        SUNNY     41   8  25 N7        30.22S
CLINTON        SUNNY     45  15  29 NW7       30.24R
ELIZABETHTOWN  SUNNY     46  12  24 NW7       30.23R
GOLDSBORO      SUNNY     44  11  26 NW10      30.21R
GREENVILLE     SUNNY     43  10  26 N9        30.23R
HAVELOCK       SUNNY     45   9  23 N16       30.21R
KENANSVILLE    SUNNY     43  11  27 NW8       30.24R
KINSTON        SUNNY     45  10  24 NW7       30.23R
NEW BERN       SUNNY     46  11  24 N9        30.21R
RICHLANDS      SUNNY     43  14  31 N6        30.22R
ROCKY MOUNT    SUNNY     44   6  21 N8        30.23R
WASHINGTON     SUNNY     41  10  28 N9        30.21S
WHITEVILLE     SUNNY     46  12  25 NW3       30.23R

$$

AMZ130-135-150-152-154-156-158-170-250-252-270-ANZ085-086-088-633-658-670-282200-
MARINE OBSERVATIONS

STATION/POSITION TIME  TEMP    WIND        PRES    WAVE   SWELL
                       AIR SEA DIR/SP/G            HT/PER HT/PER
                 (UTC) (F)     (DEG/KT/KT) (MB)    (FT/S) (FT/S)
CHESAPEAKE LIGHT 2000   35     320/ 24/ 27 1022.0
64 E VA BEACH    2100   37 51  330/ 23/ 27 1020.0    9/13   7/13
DUCK             2100   38 42  330/ 15/ 20 1021.0
2 E DUCK         2100      42                N/A     6/13   3/13
10 NE DUCK       2100      45                N/A     8/13   3/13
OREGON INLET     2100   38 43  320/ 15/ 19 1021.7
13E OREGON INLT  2100      45                N/A     9/11   5/11
HATTERAS CG      2100   39 45  350/ 16/ 19 1022.1
DIAMOND BUOY     2100   40 68  340/ 19/ 23 1021.1    7/10   5/10
17 S OCRACOKE    NOT AVBL
CAPE LOOKOUT     2000   42     350/ 14/ 17 1021.6
BEAUFORT LAB     2100   43 47   10/ 14/ 18 1021.3
27 SE WRIGHTSVLE NOT AVBL
5 SE WRIGHTSVLE  2000   45 53  360/ 10/ 12 1022.4
225 S CAPE HAT   2011   56 72  340/ 21/ 27 1017.7   10/11   7/11
41 SE CHARLESTON 2100   45 66  360/ 12/ 17 1023.5    4/ 6   3/13

$$


USA.gov is the U.S. government's official web portal to all federal, state and local government web resources and services.